User: anonymous   Login
Location: Hungerford
(51.4167°N, 1.5167°W)
Time: 12:32:35
(UTC+00:00)
Language:

Cosmos 1937 Rocket - Orbit

View from above orbital plane
View from above orbital plane
View from above satellite
View from above satellite

Ground track
Ground track

The orbit data is extracted from the following two-line orbital elements,

1 19039U 88029B   21135.60040159  .00000054  00000-0  26306-4 0  9996
2 19039  74.0476 188.7292 0023674   4.4577 355.6783 14.38508922735945
Epoch (UTC): 15 May 2021 14:24:34
Eccentricity: 0.0023674
inclination: 74.0476°
perigee height: 746 km
apogee height: 780 km
right ascension of ascending node: 188.7292°
argument of perigee: 4.4577°
revolutions per day: 14.38508922
mean anomaly at epoch: 355.6783°
orbit number at epoch: 73594

The dashed part of the orbit path shows where the satellite is in the earth's shadow,  

DLR